RH
51 53 77 81 75 78 77 81 85 80 66 56 55 52 52 52 61 64 66 53 58 62 63 58 69 48 46 54 48 39 43 51 56 46 39 37 68 63 50 66 72 63 63 74 74 76 86 84 75
51 68 83 93 77 88 90 68 78 71 57 56 56 54 65 71 91 72 73 62 60 60 59 54 53 50 49 57 54 45 47 56 62 60 71 65 58 68 67 52 72 75 63 78 76 75 72 76 76
60 86 93 86 84 94 89 86 85 67 54 55 68 69 81 90 93 75 70 64 60 59 58 57 54 52 55 61 64 60 57 57 67 78 80 75 81 78 80 72 70 70 66 77 76 60 70 82 77
89 87 90 86 84 89 84 90 76 58 65 75 69 76 91 97 89 74 63 63 62 61 61 59 55 52 58 64 65 65 60 65 67 74 71 65 77 68 73 71 72 73 73 68 68 75 81 83 79
84 89 82 87 83 93 76 78 78 58 79 78 71 82 94 95 77 64 62 66 62 61 62 58 56 61 64 65 67 64 59 66 73 76 73 66 78 75 71 72 66 72 69 70 70 75 81 80 71
85 89 81 78 83 88 78 79 75 87 93 86 76 79 96 83 64 68 64 68 62 63 62 61 62 62 66 66 63 68 66 71 74 70 62 73 73 74 57 54 69 77 68 68 70 78 76 72 67
73 81 78 78 80 89 84 82 87 85 87 91 77 76 99 99 68 74 64 64 66 66 64 64 64 72 72 74 72 69 67 71 69 69 69 70 74 72 75 77 75 67 76 69 75 77 74 67 68
84 82 84 73 75 73 82 90 86 76 80 82 76 78 94 100 72 80 67 70 75 72 68 61 52 61 74 72 72 68 67 62 74 68 69 68 67 70 74 75 69 63 60 68 71 73 70 73 71
84 87 80 64 67 81 80 86 95 81 73 66 74 79 86 97 85 94 91 91 81 75 70 65 68 72 76 75 72 66 68 65 70 77 70 64 69 71 90 73 55 55 67 74 77 75 75 72 74
75 80 66 56 61 72 84 93 86 72 69 85 88 94 96 96 95 96 88 83 91 85 77 72 72 84 84 92 76 72 65 75 75 71 66 62 53 59 81 78 54 69 76 79 76 74 74 75 80
76 72 55 54 62 68 83 88 82 64 70 78 96 100 100 98 94 96 94 72 78 60 66 60 65 65 70 65 48 57 61 74 63 61 61 55 54 51 61 54 60 65 73 73 72 74 72 68 70
76 59 58 55 65 67 72 74 76 73 81 81 97 98 100 99 92 92 92 93 52 51 57 63 66 63 56 41 55 62 52 52 53 55 58 57 57 52 51 56 66 69 70 70 68 69 72 72 69
61 53 47 47 60 64 71 67 74 92 85 92 100 100 100 99 93 96 92 86 44 48 56 53 60 62 42 56 62 60 58 59 59 57 55 57 57 55 63 69 72 72 73 71 70 68 73 70 70
44 41 34 38 44 64 60 70 71 93 86 94 93 92 96 92 90 92 83 54 39 44 50 51 55 58 40 60 59 66 60 63 66 66 62 55 57 62 66 70 73 72 73 70 70 71 70 69 68
39 31 39 60 56 62 61 78 64 84 84 84 82 83 82 82 85 57 44 48 38 42 49 52 54 51 43 64 68 70 64 70 72 74 76 68 62 62 66 68 71 71 73 72 71 70 72 71 70
24 23 24 60 57 66 65 69 67 89 84 87 84 79 80 80 77 78 58 56 39 42 47 50 53 45 41 58 65 70 71 73 75 75 75 75 72 72 66 71 70 65 67 70 72 72 69 68 66
26 31 24 62 60 62 67 61 77 86 82 90 88 80 75 77 78 70 64 52 39 38 44 47 47 42 52 63 59 66 70 69 72 72 73 76 74 75 75 70 67 68 68 69 68 66 68 69 68
36 27 24 42 60 59 65 62 76 81 81 86 82 78 75 74 75 73 69 58 44 37 46 48 45 43 56 59 62 65 71 72 66 71 73 70 74 74 71 70 68 67 63 63 66 67 66 63 64
25 24 24 22 46 46 48 56 68 77 84 77 76 75 71 72 74 76 74 59 45 39 47 46 46 44 58 68 65 68 70 71 70 71 75 72 75 75 73 70 71 71 64 61 65 64 61 60 61
26 27 26 24 28 31 40 63 68 74 78 73 73 70 68 68 74 76 73 74 48 41 48 50 49 49 62 68 66 67 58 59 67 70 72 71 69 71 75 71 72 70 65 58 62 61 60 60 60
28 29 27 24 23 62 60 73 76 74 77 79 70 64 64 63 66 69 73 72 57 53 54 52 52 54 61 64 68 70 70 64 66 68 71 76 72 70 74 75 76 71 66 59 62 60 61 61 58
34 25 24 25 25 22 58 43 68 73 72 71 77 69 65 63 63 63 65 67 72 54 53 57 55 56 61 64 71 68 70 66 63 65 67 77 76 71 72 74 76 72 70 67 65 61 60 57 57
29 26 25 25 23 31 48 35 49 70 74 70 70 76 67 62 61 62 60 62 56 55 53 54 56 56 59 63 65 69 72 67 58 63 68 75 77 74 74 74 68 72 69 71 66 63 60 60 56
23 21 20 20 18 22 35 25 29 40 42 39 59 75 75 65 60 61 62 56 54 54 56 54 56 57 56 59 60 66 69 72 63 57 66 70 72 76 74 71 77 66 73 71 70 66 64 61 60
21 22 25 24 22 24 22 24 39 40 46 56 64 52 68 69 65 61 64 64 57 57 54 56 53 55 58 56 58 59 65 72 68 58 59 66 67 71 71 68 74 67 71 74 75 69 63 61 62
24 20 22 30 26 22 23 24 36 34 53 74 76 66 51 63 65 64 63 64 58 53 52 52 53 51 53 57 54 54 59 66 67 60 56 65 65 64 68 61 64 76 70 73 75 74 74 73 63
21 24 17 21 25 19 21 23 24 42 60 77 82 87 84 65 58 63 65 65 60 56 54 53 50 51 49 51 54 52 55 58 52 61 59 62 62 65 69 71 71 70 69 65 68 69 77 75 64
18 18 21 21 30 26 30 37 34 74 82 79 85 94 97 85 76 65 65 67 65 58 54 53 51 49 49 49 50 53 54 56 51 54 56 56 59 66 65 71 75 76 75 72 76 74 64 69 72
18 19 23 21 24 22 29 36 63 85 86 88 90 97 100 90 77 73 68 66 70 64 59 54 52 52 53 52 50 51 51 54 57 55 49 52 60 63 60 63 67 72 75 66 68 72 72 63 66
22 24 22 21 31 31 24 38 61 68 77 85 88 97 100 100 100 96 89 73 69 65 68 59 56 55 53 55 53 50 52 51 55 56 51 47 55 62 64 59 65 68 73 72 71 70 70 76 73
Wind_Speed
12 11 8 2 2 1 1 2 3 4 8 3 25 9 11 6 1 1 22 29 27 25 23 20 17 16 15 14 12 11 10 9 9 9 9 9 9 8 7 8 8 8 8 9 9 12 12 11 13
13 11 4 1 2 1 1 2 4 5 9 26 11 17 4 4 3 13 31 29 26 25 22 20 17 15 14 13 11 9 9 8 8 9 9 9 10 10 8 9 8 9 10 9 10 11 11 12 13
13 6 1 2 1 2 2 3 5 5 25 13 6 7 4 3 5 30 25 32 27 24 21 17 15 14 12 11 10 8 9 9 8 9 9 10 10 11 11 10 10 9 11 10 10 11 11 12 14
6 1 1 2 7 5 5 5 4 21 12 7 11 7 5 2 22 20 35 31 26 22 19 16 14 12 11 10 9 7 8 8 8 8 9 10 10 9 10 10 11 10 11 11 11 12 11 10 12
6 0 2 4 6 5 4 7 5 10 6 6 3 5 8 11 11 33 35 28 25 22 18 16 14 12 11 10 9 8 8 8 8 8 9 10 9 9 9 10 10 11 11 11 13 12 13 14 13
1 1 2 4 5 3 7 8 6 4 5 5 11 10 6 12 24 34 31 25 22 20 18 16 14 12 10 9 9 8 8 8 8 8 8 9 9 9 10 10 9 10 13 13 13 13 13 13 14
1 2 3 5 3 2 5 10 5 6 7 2 10 6 11 15 30 30 29 25 21 19 17 15 13 11 10 9 9 9 8 8 8 8 8 10 11 12 11 12 9 12 13 14 14 13 14 14 14
1 2 3 1 1 4 5 6 8 6 3 12 12 6 12 25 32 28 27 24 19 18 16 14 12 12 11 11 9 9 8 8 9 9 10 11 11 11 12 11 10 13 15 14 13 14 14 13 14
3 2 2 6 1 4 16 8 4 6 14 5 8 12 22 30 29 26 24 20 20 18 16 15 13 13 12 12 11 10 8 9 9 11 12 12 11 12 12 11 12 14 15 14 13 13 13 12 12
3 2 2 5 4 10 12 10 11 7 9 7 14 21 30 30 29 26 26 24 20 19 17 15 15 13 13 12 11 11 10 10 12 13 13 12 12 13 13 11 14 16 14 12 12 12 10 11 10
2 2 2 5 6 16 21 15 8 14 6 10 25 33 31 30 28 26 24 24 21 20 18 16 15 14 14 13 13 13 12 13 14 13 13 13 12 12 12 14 14 14 12 11 9 9 8 9 9
3 7 7 1 8 12 16 16 10 3 4 11 25 32 32 30 27 25 23 22 22 21 18 17 17 16 14 16 16 16 15 14 14 13 13 12 12 12 15 15 16 14 11 9 7 6 6 7 6
7 6 4 6 11 7 15 11 10 7 13 21 28 27 28 27 24 20 21 20 22 22 20 19 18 17 16 18 18 18 17 15 14 14 12 12 12 12 14 13 11 10 8 7 5 5 7 8 5
3 9 10 3 10 12 12 10 11 9 19 27 26 25 25 25 25 21 22 22 22 21 21 20 19 19 19 19 17 14 14 14 13 12 12 12 12 10 10 8 6 4 4 5 5 4 6 8 5
5 6 3 8 11 6 12 11 8 21 22 27 25 23 23 22 22 24 23 22 23 21 21 21 21 21 20 20 17 15 14 12 11 10 9 9 9 9 7 6 4 5 7 4 2 2 3 5 6
3 1 2 3 8 6 4 4 9 28 26 22 23 24 24 24 25 22 21 21 22 21 22 22 23 22 22 21 16 14 12 10 8 6 7 6 7 7 7 4 5 7 6 3 1 2 4 6 7
1 5 4 4 4 6 4 5 9 19 28 25 24 26 26 25 25 24 22 21 21 21 22 23 23 23 23 23 16 15 11 9 8 7 6 4 6 6 4 6 8 8 7 3 2 4 6 6 7
7 5 4 5 8 5 8 4 9 14 16 21 23 25 26 26 26 25 24 21 21 23 24 24 24 24 23 22 18 15 12 10 9 7 5 3 4 5 4 8 9 8 6 2 2 3 5 5 5
5 6 4 3 5 3 4 4 9 14 16 18 23 25 25 27 26 24 25 24 24 26 25 26 26 26 25 23 22 18 14 11 9 7 6 4 3 3 6 9 9 7 6 4 2 3 4 4 3
5 4 3 2 4 3 2 2 6 11 13 18 23 26 27 25 25 27 26 25 28 28 27 26 26 27 25 24 21 18 14 11 10 9 6 5 5 5 3 12 8 9 7 7 4 2 2 2 2
5 6 3 2 1 3 4 4 5 6 8 12 22 23 26 26 27 30 27 30 31 31 31 28 25 27 26 25 22 20 15 13 13 11 11 6 5 6 4 8 8 8 7 8 6 3 0 2 4
10 7 4 3 2 1 2 2 2 8 12 13 18 29 26 29 28 30 31 32 31 34 31 30 26 26 26 25 23 23 19 17 15 10 10 8 6 7 8 7 8 8 8 7 6 4 2 2 1
5 4 5 2 4 3 4 2 5 4 8 11 16 21 30 29 31 32 33 32 37 36 34 33 30 27 27 25 24 22 21 18 15 12 11 9 7 7 8 9 9 10 8 9 9 7 5 4 4
9 6 4 4 3 5 5 3 8 5 7 8 15 25 28 33 32 32 32 33 34 35 37 36 35 32 29 27 25 24 23 21 17 15 13 11 10 8 8 9 9 11 9 9 8 8 9 9 7
7 9 5 6 5 5 2 3 7 9 11 12 15 18 31 30 31 31 32 32 33 34 33 36 36 36 34 30 27 23 24 24 21 17 15 14 13 11 9 10 10 11 10 9 9 7 10 10 9
14 11 6 10 8 7 2 8 7 11 15 18 23 16 11 27 28 29 31 33 37 37 34 32 31 34 35 34 28 24 24 27 26 21 18 16 14 13 9 7 9 9 8 10 10 10 10 9 11
6 8 2 5 2 8 4 3 6 16 19 27 27 23 14 9 26 29 28 31 36 39 38 35 33 31 36 35 32 27 24 26 27 25 22 20 16 15 13 10 8 7 9 8 8 10 9 8 9
2 4 6 3 9 9 4 3 4 17 19 18 23 24 22 8 13 23 27 27 32 33 33 35 35 34 33 36 36 32 28 25 25 25 24 24 21 18 16 14 12 11 10 11 9 8 9 9 10
1 3 3 2 2 6 7 4 6 8 11 14 22 24 24 19 2 12 18 21 24 30 29 32 36 36 36 39 39 36 31 28 27 26 24 25 23 22 19 17 15 14 12 11 11 9 9 8 9
7 3 1 7 5 2 1 5 5 8 12 15 19 22 24 24 21 12 2 10 17 22 24 28 29 32 33 35 40 41 37 31 29 26 25 25 27 25 22 20 18 17 15 16 15 14 14 12 9
Wind_Direction
153 145 138 111 207 191 254 118 149 140 151 157 149 156 166 133 167 85 148 158 158 150 145 144 137 133 132 125 122 118 113 109 101 97 98 104 108 109 117 120 107 107 118 115 104 95 92 96 91
152 143 130 115 238 185 6 49 114 96 129 136 130 140 130 98 84 140 148 154 157 149 146 146 141 140 136 128 118 112 113 113 110 99 96 103 109 101 100 127 119 109 118 106 111 110 106 99 94
149 144 168 244 177 155 191 65 359 86 137 137 115 115 80 87 143 143 157 152 155 150 150 150 146 143 140 135 126 123 125 125 116 106 101 100 99 107 98 105 121 117 120 123 115 109 109 106 99
149 102 308 254 235 163 155 137 84 120 122 77 120 70 69 192 139 151 152 153 152 150 151 151 150 154 153 150 143 137 127 126 116 112 106 104 98 93 99 105 104 112 114 123 115 108 107 97 100
138 141 257 260 279 101 145 147 111 141 101 70 110 98 98 133 145 152 152 155 154 150 150 151 151 153 153 153 150 140 133 127 117 110 104 104 103 93 101 103 110 114 121 125 119 117 105 101 95
130 284 276 341 52 101 103 147 130 81 102 108 105 103 98 154 155 152 154 156 156 151 150 150 151 148 146 147 144 141 136 127 120 111 108 106 103 95 92 101 114 113 126 123 117 109 109 96 84
339 284 321 313 97 82 98 124 121 126 124 167 134 101 128 147 158 154 155 158 160 155 153 156 155 148 152 150 144 142 134 126 119 113 103 110 102 100 98 95 96 119 126 121 113 107 100 96 82
275 274 290 251 224 106 126 92 117 109 158 147 147 156 160 160 160 155 157 160 162 158 158 159 161 161 156 148 146 140 132 127 122 112 112 113 106 103 95 90 112 122 128 118 108 106 104 88 78
265 280 330 29 188 107 130 111 164 125 142 148 172 148 156 153 157 154 156 160 163 164 161 159 158 157 153 148 142 136 131 127 121 120 117 115 115 108 99 101 107 114 117 115 106 108 102 83 70
233 278 352 8 109 131 116 136 158 159 135 89 117 135 148 155 158 159 162 166 169 167 165 165 163 160 155 145 149 145 141 136 127 123 118 117 115 112 107 106 110 116 114 109 102 100 91 75 69
206 239 28 34 95 148 142 156 175 155 175 181 154 146 152 157 162 165 167 171 173 172 167 165 163 162 160 153 149 139 132 131 129 124 119 120 117 115 114 112 113 117 116 108 96 93 80 67 71
268 249 273 244 147 147 151 155 144 158 84 152 155 150 156 159 168 171 170 173 175 174 169 163 164 163 159 148 145 138 129 125 126 125 121 121 118 116 112 113 112 110 111 108 99 87 65 59 61
237 273 265 238 183 141 140 165 129 119 137 142 148 151 160 164 172 176 175 176 176 174 170 168 168 162 158 148 145 139 132 126 120 116 122 123 119 120 118 114 110 113 106 111 100 81 48 50 64
290 276 301 286 195 159 156 146 132 162 150 149 157 162 167 170 172 175 180 180 176 175 171 170 169 165 162 153 152 148 141 133 124 118 117 125 127 131 132 121 116 133 120 118 103 60 50 49 74
283 287 88 52 147 158 157 155 196 159 158 160 168 168 172 176 179 180 183 185 179 178 174 172 171 169 167 161 158 154 153 148 138 131 128 135 140 149 160 153 163 141 141 128 99 4 7 50 84
240 257 184 91 159 156 194 129 137 169 164 168 172 178 180 185 189 188 190 193 185 183 180 176 175 173 170 169 163 156 156 158 157 148 151 149 161 173 186 192 165 169 169 150 97 74 63 91 91
170 159 115 129 186 161 205 112 139 172 181 169 182 187 189 193 198 197 197 201 191 187 183 180 180 175 172 172 172 169 158 162 163 148 143 155 181 177 183 197 166 157 162 141 92 105 96 96 90
161 146 111 120 178 183 191 182 157 177 179 183 192 190 193 197 202 204 203 204 195 188 188 185 182 180 175 176 174 178 173 166 164 160 155 135 187 215 196 171 177 174 174 155 104 115 106 103 115
123 131 127 88 140 220 236 248 187 177 175 187 193 192 195 198 202 204 204 203 197 192 189 188 186 184 183 182 184 186 188 191 188 185 181 177 186 188 193 193 198 211 200 178 152 117 119 116 117
157 150 150 69 57 241 298 144 184 182 188 187 185 193 197 203 200 205 203 200 199 193 193 191 190 189 191 192 190 192 193 202 209 206 194 185 205 214 256 210 204 204 213 194 180 139 130 168 119
183 199 175 101 16 100 141 138 162 185 174 179 194 193 198 203 201 207 201 203 204 202 202 198 197 194 197 199 200 200 204 205 206 211 205 195 196 192 192 179 190 196 194 198 194 211 306 207 199
211 199 201 193 286 181 308 90 166 182 194 198 189 202 199 203 204 208 205 206 208 208 211 208 204 206 207 209 211 212 209 207 208 215 207 205 199 197 200 195 200 191 191 199 200 220 218 150 207
207 158 192 175 199 227 170 233 91 161 213 228 220 207 210 207 206 206 210 211 215 215 215 218 213 212 216 215 217 219 217 219 218 213 206 213 211 215 213 211 209 201 209 226 224 231 235 235 248
147 113 93 105 174 203 148 263 56 34 348 326 240 216 213 207 209 210 210 218 217 220 222 223 221 219 220 221 222 223 221 223 222 222 221 224 223 229 222 216 218 214 220 203 226 243 233 234 238
167 178 150 179 197 184 124 181 62 33 20 356 337 254 215 209 205 207 208 210 217 217 223 228 228 227 223 224 225 226 227 229 234 237 223 227 227 234 232 225 221 212 217 229 236 239 236 241 241
193 200 195 179 187 158 179 160 112 44 26 18 21 24 212 208 209 210 210 209 218 221 226 228 230 227 228 226 229 229 231 233 239 237 233 231 238 232 229 224 221 222 229 232 238 239 239 238 233
153 201 46 105 70 186 136 128 183 16 18 16 18 18 17 221 213 213 212 208 219 225 229 233 233 234 230 229 228 231 231 233 234 237 238 234 237 226 223 226 227 233 226 230 247 241 239 239 233
358 110 175 214 168 184 116 104 28 1 4 4 8 12 3 322 219 214 212 213 218 227 230 232 234 240 241 233 233 233 235 234 233 236 241 236 236 229 228 234 235 239 231 233 242 251 250 244 241
73 126 62 104 332 182 162 128 21 22 13 4 6 10 17 31 168 202 210 216 216 225 226 229 234 240 240 238 235 234 236 238 237 238 240 234 236 231 234 233 235 231 233 230 238 244 255 255 255
47 64 8 218 182 55 333 114 29 50 41 22 21 20 27 39 49 62 127 209 211 225 225 237 237 241 246 244 239 237 237 239 239 243 242 239 234 233 237 236 241 232 227 230 237 242 249 251 259